Location: Bathsheba
(13.2167°N, 59.5167°W)
Time: 23:06:29
(UTC+00:00)

Cosmos 1844 - Pass Details

Date: 18 September 2020
Orbit: 824 x 866 km, 70.9° (Epoch: 20 October)

Event Time Altitude Azimuth Distance (km) Brightness Sun altitude
Rises 22:39:41 0° 176° (S) 3,433 6.8 -11.3°
Reaches altitude 10° 22:42:22 10° 167° (SSE) 2,493 6.0 -11.9°
Maximum altitude 22:47:29 34° 104° (ESE) 1,388 4.3 -13.2°
Drops below altitude 10° 22:52:32 10° 41° (NE) 2,475 5.8 -14.4°
Sets 22:55:10 0° 32° (NNE) 3,404 6.6 -15.1°
